Location: ???????????
(55.5758°N, 38.4970°E)
Time: 18:11:54
(UTC+00:00)

SL-16 R/B - Pass Details

Date: 15 November 2025
Orbit: 841 x 844 km, 71.0° (Epoch: 14 December)

Event Time Altitude Azimuth Distance (km) Brightness Sun altitude
Exits shadow 02:26:37 18° 333° (NNW) 1,969 3.8 -21.4°
Maximum altitude 02:27:35 19° 346° (NNW) 1,932 3.9 -21.2°
Drops below altitude 10° 02:31:31 10° 30° (NNE) 2,478 5.0 -20.7°
Sets 02:34:46 0° 49° (NE) 3,415 6.0 -20.2°
